FW7539 Weather Reports


Display with metric or nautical units.
time (UTC)temp
F
wind
direction
speed
MPH
gust
MPH
rain 1hr
in
rain 24hr
in
rain mn
in
humidity
%
barometer
mb
20260903181502 94 269 2.0 8.0 0.00 0.00 0.00 48 1015.3
20260903181023 94 283 2.0 8.0 0.00 0.00 0.00 49 1015.3
20260903180502 93 259 3.0 11.0 0.00 0.00 0.00 48 1015.4
20260903180003 93 250 3.0 11.0 0.00 0.00 0.00 47 1015.4
20260903175502 93 246 3.0 10.0 0.00 0.00 0.00 48 1015.4
20260903175003 93 242 3.0 10.0 0.00 0.00 0.00 48 1015.4
20260903174502 93 255 3.0 8.0 0.00 0.00 0.00 48 1015.6
20260903174002 93 248 3.0 8.0 0.00 0.00 0.00 50 1015.5
20260903173502 93 242 3.0 7.0 0.00 0.00 0.00 49 1015.6
20260903173002 93 193 2.0 12.0 0.00 0.00 0.00 52 1015.6
20260903172503 93 178 3.0 12.0 0.00 0.00 0.00 51 1015.7
20260903172023 93 180 2.0 7.0 0.00 0.00 0.00 51 1015.8
20260903171502 93 198 2.0 7.0 0.00 0.00 0.00 53 1015.7
20260903171002 93 232 2.0 7.0 0.00 0.00 0.00 53 1015.8
20260903170502 93 209 2.0 5.0 0.00 0.00 0.00 51 1015.9
20260903170002 93 211 2.0 5.0 0.00 0.00 0.00 52 1015.9
20260903165502 93 251 2.0 5.0 0.00 0.00 0.00 53 1015.9
20260903165002 92 226 2.0 6.0 0.00 0.00 0.00 52 1016.0
20260903164502 92 199 2.0 6.0 0.00 0.00 0.00 55 1016.1
20260903164002 92 207 2.0 5.0 0.00 0.00 0.00 53 1016.2
20260903163523 92 163 2.0 7.0 0.00 0.00 0.00 53 1016.2
20260903163002 92 169 2.0 7.0 0.00 0.00 0.00 53 1016.2
20260903162503 92 209 2.0 7.0 0.00 0.00 0.00 55 1016.3
20260903162002 91 217 2.0 7.0 0.00 0.00 0.00 55 1016.4
20260903161503 91 217 2.0 7.0 0.00 0.00 0.00 57 1016.3
20260903161002 91 230 2.0 7.0 0.00 0.00 0.00 57 1016.5
20260903160502 91 246 2.0 7.0 0.00 0.00 0.00 55 1016.5
20260903160003 91 211 2.0 7.0 0.00 0.00 0.00 56 1016.5
20260903155502 91 233 2.0 5.0 0.00 0.00 0.00 58 1016.5
20260903155003 90 279 1.0 5.0 0.00 0.00 0.00 60 1016.5
20260903154502 90 248 2.0 5.0 0.00 0.00 0.00 59 1016.6
20260903154002 89 243 3.0 7.0 0.00 0.00 0.00 59 1016.5
20260903153503 89 255 3.0 7.0 0.00 0.00 0.00 59 1016.5
20260903153002 89 267 2.0 7.0 0.00 0.00 0.00 59 1016.5
20260903152502 89 251 2.0 9.0 0.00 0.00 0.00 61 1016.4
20260903152002 89 248 2.0 9.0 0.00 0.00 0.00 61 1016.5
20260903151502 88 254 2.0 5.0 0.00 0.00 0.00 61 1016.5
20260903151002 88 238 2.0 5.0 0.00 0.00 0.00 62 1016.5
20260903150502 88 185 2.0 7.0 0.00 0.00 0.00 63 1016.4
20260903150003 87 194 2.0 7.0 0.00 0.00 0.00 62 1016.4
20260903145502 87 254 2.0 4.0 0.00 0.00 0.00 62 1016.5
20260903145024 87 277 2.0 6.0 0.00 0.00 0.00 62 1016.4
20260903144502 87 283 1.0 6.0 0.00 0.00 0.00 62 1016.4
20260903144003 87 276 1.0 4.0 0.00 0.00 0.00 64 1016.4
20260903143502 86 258 2.0 6.0 0.00 0.00 0.00 66 1016.4
20260903143003 86 267 2.0 6.0 0.00 0.00 0.00 63 1016.3
20260903142503 86 286 2.0 6.0 0.00 0.00 0.00 63 1016.4
20260903142002 85 261 2.0 4.0 0.00 0.00 0.00 65 1016.3
20260903141503 85 260 1.0 4.0 0.00 0.00 0.00 67 1016.4
20260903141002 85 272 1.0 3.0 0.00 0.00 0.00 68 1016.4
20260903140503 84 261 1.0 4.0 0.00 0.00 0.00 70 1016.4
20260903140002 84 255 1.0 4.0 0.00 0.00 0.00 68 1016.5
20260903135503 84 262 1.0 3.0 0.00 0.00 0.00 68 1016.6
20260903135002 83 271 1.0 4.0 0.00 0.00 0.00 69 1016.5
20260903134503 83 255 1.0 4.0 0.00 0.00 0.00 72 1016.6
20260903134023 83 265 1.0 4.0 0.00 0.00 0.00 70 1016.6
20260903133502 82 306 1.0 2.0 0.00 0.00 0.00 71 1016.6
20260903133002 82 302 0.0 2.0 0.00 0.00 0.00 72 1016.7
20260903132502 82 263 0.0 2.0 0.00 0.00 0.00 73 1016.8
20260903132003 81 255 1.0 4.0 0.00 0.00 0.00 72 1016.8
20260903131502 81 256 1.0 4.0 0.00 0.00 0.00 73 1016.8
20260903131003 81 237 1.0 4.0 0.00 0.00 0.00 73 1016.8
20260903130502 80 227 2.0 4.0 0.00 0.00 0.00 74 1016.9
20260903130002 80 226 2.0 4.0 0.00 0.00 0.00 74 1016.9
20260903125503 79 227 1.0 4.0 0.00 0.00 0.00 76 1016.9
20260903125002 79 232 1.0 4.0 0.00 0.00 0.00 76 1016.9
20260903124523 78 232 0.0 3.0 0.00 0.00 0.00 78 1016.9
20260903124002 78 225 0.0 3.0 0.00 0.00 0.00 78 1016.9
20260903123523 78 238 0.0 3.0 0.00 0.00 0.00 78 1016.9
20260903123003 77 271 0.0 2.0 0.00 0.00 0.00 80 1017.0
20260903122523 77 271 0.0 2.0 0.00 0.00 0.00 80 1017.0
20260903122024 77 278 0.0 3.0 0.00 0.00 0.00 81 1017.0
20260903121523 76 290 0.0 3.0 0.00 0.00 0.00 80 1017.0
20260903121003 76 18 0.0 1.0 0.00 0.00 0.00 81 1016.9
20260903120523 76 18 0.0 1.0 0.00 0.00 0.00 81 1016.9
20260903120003 76 19 0.0 1.0 0.00 0.00 0.00 81 1016.9
20260903115502 76 20 0.0 1.0 0.00 0.00 0.00 81 1016.8
20260903115002 76 24 0.0 1.0 0.00 0.00 0.00 81 1016.8
20260903114523 76 24 0.0 1.0 0.00 0.00 0.00 81 1016.7
20260903114002 76 24 0.0 1.0 0.00 0.00 0.00 81 1016.8
20260903113503 76 24 0.0 1.0 0.00 0.00 0.00 81 1016.8
20260903113002 76 351 0.0 2.0 0.00 0.00 0.00 81 1016.7
20260903112503 76 303 0.0 2.0 0.00 0.00 0.00 81 1016.6
20260903112003 76 284 0.0 2.0 0.00 0.00 0.00 81 1016.6
20260903111524 75 284 0.0 2.0 0.00 0.00 0.00 81 1016.5
20260903111002 76 284 0.0 1.0 0.00 0.00 0.00 81 1016.5
20260903110502 76 284 0.0 1.0 0.00 0.00 0.00 81 1016.5
20260903110003 76 0 0.0 0.0 0.00 0.00 0.00 81 1016.4
20260903105523 76 284 0.0 2.0 0.00 0.00 0.00 81 1016.3
20260903105003 76 284 0.0 2.0 0.00 0.00 0.00 81 1016.3
20260903104502 76 284 0.0 1.0 0.00 0.00 0.00 81 1016.2
20260903104003 76 284 0.0 1.0 0.00 0.00 0.00 80 1016.2
20260903103502 76 284 0.0 1.0 0.00 0.00 0.00 80 1016.2
20260903103002 76 284 0.0 1.0 0.00 0.00 0.00 80 1016.2
20260903102502 76 283 0.0 2.0 0.00 0.00 0.00 80 1016.1
20260903102002 76 283 0.0 2.0 0.00 0.00 0.00 80 1016.1
20260903101523 76 281 0.0 1.0 0.00 0.00 0.00 81 1016.1
20260903101003 76 281 0.0 1.0 0.00 0.00 0.00 81 1016.2
20260903100502 76 281 0.0 1.0 0.00 0.00 0.00 81 1016.1
20260903100003 76 281 0.0 1.0 0.00 0.00 0.00 81 1016.2
20260903095523 76 281 0.0 1.0 0.00 0.00 0.00 81 1016.1
20260903095003 76 281 0.0 1.0 0.00 0.00 0.00 81 1016.1
20260903094503 76 281 0.0 1.0 0.00 0.00 0.00 81 1016.1
20260903094003 76 281 0.0 2.0 0.00 0.00 0.00 81 1016.1
20260903093523 76 281 0.0 2.0 0.00 0.00 0.00 81 1016.0
20260903093002 76 285 0.0 2.0 0.00 0.00 0.00 82 1016.1
20260903092524 76 290 0.0 2.0 0.00 0.00 0.00 82 1016.0
20260903092024 76 290 0.0 1.0 0.00 0.00 0.00 82 1016.1
20260903091502 76 290 0.0 1.0 0.00 0.00 0.00 82 1016.0
20260903091003 76 290 0.0 1.0 0.00 0.00 0.00 82 1016.0
20260903090523 76 290 0.0 1.0 0.00 0.00 0.00 82 1016.0
20260903090003 76 0 0.0 0.0 0.00 0.00 0.00 82 1016.1
20260903085502 76 0 0.0 0.0 0.00 0.00 0.00 82 1016.1
20260903085003 76 0 0.0 0.0 0.00 0.00 0.00 83 1016.1
20260903084502 76 0 0.0 0.0 0.00 0.00 0.00 82 1016.0
20260903084003 76 0 0.0 0.0 0.00 0.00 0.00 82 1016.0
20260903083503 76 0 0.0 0.0 0.00 0.00 0.00 82 1015.9
20260903083002 76 290 0.0 1.0 0.00 0.00 0.00 82 1015.9
20260903082503 76 290 0.0 1.0 0.00 0.00 0.00 82 1015.9
20260903082002 76 290 0.0 1.0 0.00 0.00 0.00 82 1015.9
20260903081503 76 0 0.0 0.0 0.00 0.00 0.00 82 1015.9
20260903081002 76 290 0.0 1.0 0.00 0.00 0.00 82 1015.8
20260903080503 76 290 0.0 1.0 0.00 0.00 0.00 82 1015.9
20260903080003 76 290 0.0 1.0 0.00 0.00 0.00 82 1015.9
20260903075503 76 290 0.0 1.0 0.00 0.00 0.00 82 1015.8
20260903075025 76 290 0.0 1.0 0.00 0.00 0.00 82 1015.8
20260903074502 76 290 0.0 1.0 0.00 0.00 0.00 82 1015.8
20260903074024 77 290 0.0 1.0 0.00 0.00 0.00 81 1015.8
20260903073502 77 290 0.0 1.0 0.00 0.00 0.00 81 1015.8
20260903073003 77 290 0.0 1.0 0.00 0.00 0.00 81 1015.8
20260903072524 77 0 0.0 0.0 0.00 0.00 0.00 81 1015.7
20260903072024 77 0 0.0 0.0 0.00 0.00 0.00 81 1015.7
20260903071502 77 0 0.0 0.0 0.00 0.00 0.00 81 1015.8
20260903071003 77 0 0.0 0.0 0.00 0.00 0.00 81 1015.8
20260903070502 77 0 0.0 0.0 0.00 0.00 0.00 81 1015.7
20260903070002 77 0 0.0 0.0 0.00 0.00 0.00 81 1015.8
20260903065502 77 0 0.0 0.0 0.00 0.00 0.00 81 1015.8
20260903065002 77 0 0.0 0.0 0.00 0.00 0.00 81 1015.7
20260903064502 77 0 0.0 0.0 0.00 0.00 0.00 81 1015.8
20260903064003 77 0 0.0 0.0 0.00 0.00 0.00 80 1015.8
20260903063503 77 0 0.0 0.0 0.00 0.00 0.00 80 1015.8
20260903063003 77 290 0.0 1.0 0.00 0.00 0.00 80 1015.8
20260903062503 78 290 0.0 1.0 0.00 0.00 0.00 80 1015.8
20260903062002 78 290 0.0 1.0 0.00 0.00 0.00 80 1015.9
20260903061503 78 290 0.0 1.0 0.00 0.00 0.00 80 1015.8
20260903061003 78 0 0.0 0.0 0.00 0.00 0.00 80 1015.7
20260903060503 77 0 0.0 0.0 0.00 0.00 0.00 80 1015.7
20260903060003 78 290 0.0 1.0 0.00 0.00 0.00 80 1015.7
20260903055523 78 290 0.0 1.0 0.00 0.00 0.00 80 1015.8
20260903055003 78 290 0.0 1.0 0.00 0.00 0.00 80 1015.7
20260903054503 78 290 0.0 1.0 0.00 0.00 0.00 80 1015.7
20260903054003 78 290 0.0 1.0 0.00 0.00 0.00 79 1015.8
20260903053503 78 290 0.0 1.0 0.00 0.00 0.00 79 1015.7
20260903053003 78 290 0.0 1.0 0.00 0.00 0.00 79 1015.7
20260903052524 78 0 0.0 0.0 0.00 0.00 0.00 79 1015.7
20260903052002 78 290 0.0 1.0 0.00 0.00 0.00 78 1015.6
20260903051503 78 290 0.0 1.0 0.00 0.00 0.00 78 1015.6
20260903051002 79 290 0.0 1.0 0.00 0.00 0.00 78 1015.6
20260903050524 79 290 0.0 1.0 0.00 0.00 0.00 78 1015.6
20260903050003 79 290 0.0 1.0 0.00 0.00 0.00 77 1015.6
20260903045503 79 290 0.0 1.0 0.00 0.00 0.00 77 1015.6
20260903045027 79 290 0.0 1.0 0.00 0.00 0.00 77 1015.6
20260903044503 79 290 0.0 1.0 0.00 0.00 0.00 77 1015.5
20260903044003 79 0 0.0 0.0 0.00 0.00 0.00 77 1015.5
20260903043502 79 0 0.0 0.0 0.00 0.00 0.00 77 1015.5
20260903043003 79 290 0.0 1.0 0.00 0.00 0.00 77 1015.5
20260903042503 79 290 0.0 1.0 0.00 0.00 0.00 77 1015.4
20260903042003 79 290 0.0 1.0 0.00 0.00 0.00 77 1015.5
20260903041503 79 290 0.0 1.0 0.00 0.00 0.00 77 1015.5
20260903041003 79 290 0.0 1.0 0.00 0.00 0.00 77 1015.5
20260903040524 79 290 0.0 1.0 0.00 0.00 0.00 76 1015.5
20260903040024 79 290 0.0 1.0 0.00 0.00 0.00 76 1015.5
20260903035502 80 290 0.0 1.0 0.00 0.00 0.00 76 1015.5
20260903035003 80 0 0.0 0.0 0.00 0.00 0.00 75 1015.5
20260903034502 80 290 0.0 1.0 0.00 0.00 0.00 75 1015.5
20260903034003 80 290 0.0 1.0 0.00 0.00 0.00 75 1015.5
20260903033524 80 290 0.0 1.0 0.00 0.00 0.00 75 1015.6
20260903033003 80 0 0.0 0.0 0.00 0.00 0.00 74 1015.5
20260903032503 80 0 0.0 0.0 0.00 0.00 0.00 74 1015.6
20260903032003 80 291 0.0 2.0 0.00 0.00 0.00 74 1015.6
20260903031502 81 293 0.0 2.0 0.00 0.00 0.00 73 1015.6
20260903031003 81 300 0.0 1.0 0.00 0.00 0.00 73 1015.6
20260903030524 81 300 0.0 1.0 0.00 0.00 0.00 72 1015.7
20260903030003 81 300 0.0 2.0 0.00 0.00 0.00 72 1015.7
20260903025503 82 300 0.0 2.0 0.00 0.00 0.00 72 1015.8
20260903025024 82 300 0.0 2.0 0.00 0.00 0.00 72 1015.8
20260903024503 82 300 0.0 2.0 0.00 0.00 0.00 71 1015.8
20260903024003 82 300 0.0 2.0 0.00 0.00 0.00 70 1015.8
20260903023502 82 300 0.0 2.0 0.00 0.00 0.00 70 1015.9
20260903023003 82 300 0.0 1.0 0.00 0.00 0.00 70 1015.9
20260903022503 82 300 0.0 2.0 0.00 0.00 0.00 70 1015.9
20260903022002 82 303 0.0 2.0 0.00 0.00 0.00 69 1015.9
20260903021524 82 308 1.0 2.0 0.00 0.00 0.00 69 1015.8
20260903021002 82 301 1.0 3.0 0.00 0.00 0.00 69 1015.8
20260903020524 82 287 0.0 3.0 0.00 0.00 0.00 70 1015.9
20260903020003 82 262 0.0 1.0 0.00 0.00 0.00 70 1015.8
20260903015502 82 262 0.0 1.0 0.00 0.00 0.00 69 1015.8
20260903015003 82 262 0.0 1.0 0.00 0.00 0.00 71 1015.8
20260903014503 82 262 0.0 1.0 0.00 0.00 0.00 70 1015.8
20260903014024 82 262 0.0 1.0 0.00 0.00 0.00 71 1015.8
20260903013502 82 262 0.0 1.0 0.00 0.00 0.00 70 1015.8
20260903013003 82 262 0.0 1.0 0.00 0.00 0.00 70 1015.7
20260903012524 83 262 0.0 1.0 0.00 0.00 0.00 71 1015.7
20260903012003 83 262 0.0 1.0 0.00 0.00 0.00 70 1015.6
20260903011524 83 0 0.0 0.0 0.00 0.00 0.00 69 1015.5
20260903011003 83 0 0.0 0.0 0.00 0.00 0.00 69 1015.4
20260903010503 84 0 0.0 0.0 0.00 0.00 0.00 68 1015.4
20260903010003 84 0 0.0 0.0 0.00 0.00 0.00 67 1015.4
20260903005503 84 0 0.0 0.0 0.00 0.00 0.00 67 1015.3
20260903005003 85 0 0.0 0.0 0.00 0.00 0.00 66 1015.2
20260903004503 85 262 0.0 1.0 0.00 0.00 0.00 66 1015.2
20260903004003 86 262 0.0 3.0 0.00 0.00 0.00 65 1015.2
20260903003503 86 262 0.0 3.0 0.00 0.00 0.00 64 1015.1
20260903003003 86 262 0.0 1.0 0.00 0.00 0.00 63 1015.1
20260903002505 87 262 0.0 1.0 0.00 0.00 0.00 62 1015.1
20260903002003 87 262 0.0 2.0 0.00 0.00 0.00 62 1015.1
20260903001503 87 264 1.0 2.0 0.00 0.00 0.00 62 1015.1
20260903001003 88 267 1.0 2.0 0.00 0.00 0.00 61 1015.2
20260903000503 88 269 0.0 2.0 0.00 0.00 0.00 60 1015.2
20260903000003 88 269 0.0 2.0 0.00 0.00 0.00 59 1015.2
20260902235504 89 261 1.0 3.0 0.00 0.00 0.00 58 1015.2
20260902235025 89 254 1.0 3.0 0.00 0.00 0.00 58 1015.1
20260902234524 89 236 1.0 3.0 0.00 0.00 0.00 58 1015.2
20260902234024 90 244 1.0 3.0 0.00 0.00 0.00 57 1015.1
20260902233503 90 261 0.0 3.0 0.00 0.00 0.00 57 1015.1
20260902233024 90 248 0.0 3.0 0.00 0.00 0.00 56 1015.2
20260902232503 91 218 1.0 3.0 0.00 0.00 0.00 56 1015.2
20260902232003 91 239 1.0 3.0 0.00 0.00 0.00 55 1015.2
20260902231503 92 214 1.0 4.0 0.00 0.00 0.00 54 1015.2
20260902231003 92 161 1.0 4.0 0.00 0.00 0.00 53 1015.2
20260902230524 92 189 1.0 4.0 0.00 0.00 0.00 52 1015.2
20260902230025 93 247 1.0 3.0 0.00 0.00 0.00 52 1015.3
20260902225503 93 217 2.0 8.0 0.00 0.00 0.00 52 1015.3
20260902225003 93 180 2.0 8.0 0.00 0.00 0.00 52 1015.3
20260902224503 93 210 2.0 6.0 0.00 0.00 0.00 51 1015.3
20260902224003 94 230 2.0 6.0 0.00 0.00 0.00 51 1015.3
20260902223503 94 203 1.0 4.0 0.00 0.00 0.00 51 1015.3
20260902223004 94 208 2.0 5.0 0.00 0.00 0.00 50 1015.4
20260902222503 94 228 2.0 5.0 0.00 0.00 0.00 50 1015.3
20260902222003 94 220 1.0 4.0 0.00 0.00 0.00 51 1015.5
20260902221503 94 230 1.0 5.0 0.00 0.00 0.00 50 1015.5
20260902221004 94 231 2.0 7.0 0.00 0.00 0.00 49 1015.5
20260902220503 95 213 1.0 7.0 0.00 0.00 0.00 48 1015.5
20260902220004 95 218 1.0 7.0 0.00 0.00 0.00 49 1015.5
20260902215503 95 236 2.0 7.0 0.00 0.00 0.00 48 1015.5
20260902215024 95 254 2.0 7.0 0.00 0.00 0.00 47 1015.5
20260902214503 95 259 2.0 7.0 0.00 0.00 0.00 47 1015.5
20260902214003 95 226 1.0 5.0 0.00 0.00 0.00 49 1015.5
20260902213503 94 173 2.0 7.0 0.00 0.00 0.00 49 1015.5
20260902213003 95 192 2.0 7.0 0.00 0.00 0.00 49 1015.5
20260902212503 95 203 2.0 4.0 0.00 0.00 0.00 50 1015.5
20260902212003 95 182 2.0 5.0 0.00 0.00 0.00 48 1015.6
20260902211503 94 208 2.0 5.0 0.00 0.00 0.00 49 1015.6
20260902211003 94 239 2.0 8.0 0.00 0.00 0.00 50 1015.6
20260902210503 94 213 2.0 8.0 0.00 0.00 0.00 50 1015.7
20260902210003 94 162 2.0 6.0 0.00 0.00 0.00 49 1015.7
20260902205504 94 176 2.0 6.0 0.00 0.00 0.00 48 1015.7
20260902205024 94 182 2.0 5.0 0.00 0.00 0.00 48 1015.8
20260902204503 94 226 2.0 5.0 0.00 0.00 0.00 48 1015.8
20260902204003 95 261 2.0 4.0 0.00 0.00 0.00 50 1015.8
20260902203503 94 230 2.0 4.0 0.00 0.00 0.00 50 1015.9
20260902203003 94 174 2.0 9.0 0.00 0.00 0.00 50 1015.9
20260902202503 94 147 3.0 9.0 0.00 0.00 0.00 49 1015.8
20260902202003 94 158 2.0 6.0 0.00 0.00 0.00 48 1015.8
20260902201503 95 244 2.0 6.0 0.00 0.00 0.00 49 1015.9
20260902201003 95 225 2.0 6.0 0.00 0.00 0.00 48 1015.9
20260902200503 95 223 2.0 6.0 0.00 0.00 0.00 48 1016.0
20260902200003 95 261 2.0 9.0 0.00 0.00 0.00 48 1016.0
20260902195503 94 244 3.0 9.0 0.00 0.00 0.00 48 1016.0
20260902195004 94 194 3.0 8.0 0.00 0.00 0.00 47 1016.2
20260902194503 94 201 2.0 4.0 0.00 0.00 0.00 49 1016.1
20260902194004 94 225 1.0 7.0 0.00 0.00 0.00 50 1016.2
20260902193525 93 231 2.0 7.0 0.00 0.00 0.00 49 1016.3
20260902193004 94 251 2.0 6.0 0.00 0.00 0.00 49 1016.3
20260902192504 94 213 2.0 5.0 0.00 0.00 0.00 51 1016.4
20260902192004 94 200 1.0 5.0 0.00 0.00 0.00 50 1016.6
20260902191504 93 211 2.0 7.0 0.00 0.00 0.00 51 1016.6
20260902191004 93 209 3.0 8.0 0.00 0.00 0.00 50 1016.7
20260902190525 93 216 3.0 8.0 0.00 0.00 0.00 49 1016.7
20260902190024 93 248 2.0 9.0 0.00 0.00 0.00 51 1016.7
20260902185503 93 245 2.0 9.0 0.00 0.00 0.00 49 1016.8
20260902185003 93 265 2.0 8.0 0.00 0.00 0.00 51 1016.8
20260902184503 93 251 3.0 8.0 0.00 0.00 0.00 49 1016.8
20260902184003 93 228 2.0 6.0 0.00 0.00 0.00 49 1016.8
20260902183503 93 229 2.0 6.0 0.00 0.00 0.00 50 1016.7
20260902183003 93 236 2.0 7.0 0.00 0.00 0.00 50 1016.9
20260902182504 93 262 3.0 10.0 0.00 0.00 0.00 52 1016.9
20260902182024 93 266 3.0 10.0 0.00 0.00 0.00 50 1016.9